Location: Prairie Dale
(45.6972°N, 104.5033°W)
Time: 19:07:28
(UTC+00:00)

X-37B - Visible Passes

Search period start: 22 January 2022 00:00
Search period end: 01 February 2022 00:00
Orbit: 334 x 337 km, 45.0° (Epoch: 11 January)

Date Brightness Start Highest point End Pass type
(mag) Time Alt. Az. Time Alt. Az. Time Alt. Az.
28 Jan 2.1 01:13:09 10° SSW 01:15:17 19° SSE 01:15:56 18° SE visible
29 Jan 1.1 01:32:53 10° SW 01:35:32 37° SSE 01:35:38 36° SSE visible
30 Jan 1.2 01:53:04 10° WSW 01:55:16 45° SW 01:55:16 45° SW visible
31 Jan 1.3 00:38:18 10° SW 00:40:58 36° SSE 00:43:37 10° E visible
31 Jan 2.6 02:13:28 10° W 02:14:53 26° W 02:14:53 26° W visible
